Location: Napier
(39.4830°S, 176.9170°E)
Time: 16:32:00
(UTC+12:00)

Meteor 2-6 Rocket - Pass Details

Date: 24 January 2019
Orbit: 807 x 914 km, 81.3° (Epoch: 17 April)

Event Time Altitude Azimuth Distance (km) Brightness Sun altitude
Exits shadow 23:33:36 61° 93° (E) 922 4.2 -25.8°
Drops below altitude 10° 23:38:51 10° 164° (SSE) 2,428 7.1 -26.3°
Sets 23:41:17 0° 167° (SSE) 3,374 8.0 -26.6°
